When you browse on this site, cookies collect data to enhance your experience and personalize the content and advertising you see.
Visit our Privacy Policy to learn more. By continuing to use the site, you agree to this use of cookies and data.
  • In Lithuania
  • List of Countries
  • For 7 days
  • Water Temperature
  • Weather Map
  • Weather Widgets
  • user-avatar
    Login

    Hourly Weather Khulna

    Today, 7 December, Saturday

    Time Temperature Precipitation Wind Pressure Humidity
    00:00 +20°C° 0 mm 0 mps 761 mmHg 62%
    01:00 +22°C° 0 mm 1 mps 761 mmHg 63%
    02:00 +22°C° 0 mm 1 mps 761 mmHg 64%
    03:00 +21°C° 0 mm 1 mps 760 mmHg 65%
    04:00 +21°C° 0 mm 1 mps 761 mmHg 66%
    05:00 +21°C° 0 mm 1 mps 761 mmHg 67%
    06:00 +21°C° 0 mm 1 mps 761 mmHg 68%
    07:00 +22°C° 0 mm 1 mps 762 mmHg 65%
    08:00 +24°C° 0 mm 1 mps 762 mmHg 61%
    09:00 +26°C° 0 mm 1 mps 763 mmHg 57%
    10:00 +27°C° 0 mm 1 mps 762 mmHg 53%
    11:00 +28°C° 0 mm 2 mps 762 mmHg 48%
    12:00 +30°C° 0 mm 1 mps 761 mmHg 43%
    13:00 +30°C° 0 mm 2 mps 761 mmHg 41%
    14:00 +30°C° 0 mm 2 mps 760 mmHg 40%
    15:00 +30°C° 0 mm 2 mps 760 mmHg 38%
    16:00 +29°C° 0 mm 1 mps 760 mmHg 42%
    17:00 +27°C° 0 mm 1 mps 760 mmHg 47%
    18:00 +23°C° 0 mm 0 mps 760 mmHg 51%
    19:00 +23°C° 0 mm 0 mps 760 mmHg 52%
    20:00 +22°C° 0 mm 0 mps 761 mmHg 53%
    21:00 +22°C° 0 mm 0 mps 761 mmHg 55%
    22:00 +21°C° 0 mm 0 mps 761 mmHg 57%
    23:00 +21°C° 0 mm 0 mps 760 mmHg 59%

    Tomorrow, 8 December, Sunday

    Time Temperature Precipitation Wind Pressure Humidity
    00:00 +20°C° 0 mm 0 mps 760 mmHg 61%
    01:00 +22°C° 0 mm 1 mps 760 mmHg 62%
    02:00 +22°C° 0 mm 1 mps 760 mmHg 63%
    03:00 +21°C° 0 mm 1 mps 760 mmHg 64%
    04:00 +21°C° 0 mm 1 mps 760 mmHg 64%
    05:00 +21°C° 0 mm 1 mps 760 mmHg 65%
    06:00 +21°C° 0 mm 1 mps 760 mmHg 66%
    07:00 +23°C° 0 mm 1 mps 761 mmHg 62%
    08:00 +24°C° 0 mm 1 mps 762 mmHg 57%
    09:00 +26°C° 0 mm 1 mps 763 mmHg 53%
    10:00 +27°C° 0 mm 1 mps 762 mmHg 50%
    11:00 +28°C° 0 mm 2 mps 762 mmHg 46%
    12:00 +30°C° 0 mm 2 mps 761 mmHg 42%
    13:00 +29°C° 0 mm 2 mps 761 mmHg 43%
    14:00 +29°C° 0 mm 2 mps 760 mmHg 44%
    15:00 +29°C° 0 mm 2 mps 760 mmHg 46%
    16:00 +28°C° 0 mm 2 mps 760 mmHg 48%
    17:00 +27°C° 0 mm 1 mps 760 mmHg 51%
    18:00 +26°C° 0 mm 1 mps 760 mmHg 54%
    19:00 +25°C° 0 mm 1 mps 760 mmHg 55%
    20:00 +24°C° 0 mm 1 mps 761 mmHg 57%
    21:00 +24°C° 0 mm 1 mps 761 mmHg 58%
    22:00 +23°C° 0 mm 1 mps 761 mmHg 61%
    23:00 +23°C° 0 mm 1 mps 761 mmHg 63%

    Day after tomorrow, 9 December, Monday

    Time Temperature Precipitation Wind Pressure Humidity
    00:00 +22°C° 0 mm 1 mps 761 mmHg 66%
    01:00 +22°C° 0 mm 1 mps 760 mmHg 66%
    02:00 +22°C° 0 mm 1 mps 760 mmHg 66%
    03:00 +22°C° 0 mm 1 mps 760 mmHg 67%
    04:00 +21°C° 0 mm 1 mps 760 mmHg 66%
    05:00 +21°C° 0 mm 1 mps 760 mmHg 65%
    06:00 +21°C° 0 mm 1 mps 761 mmHg 64%
    07:00 +22°C° 0 mm 1 mps 761 mmHg 59%
    08:00 +24°C° 0 mm 1 mps 762 mmHg 53%
    09:00 +26°C° 0 mm 1 mps 762 mmHg 48%
    10:00 +27°C° 0 mm 1 mps 762 mmHg 45%
    11:00 +28°C° 0 mm 1 mps 761 mmHg 42%
    12:00 +29°C° 0 mm 2 mps 761 mmHg 38%
    13:00 +30°C° 0 mm 2 mps 760 mmHg 37%
    14:00 +30°C° 0 mm 2 mps 760 mmHg 36%
    15:00 +30°C° 0 mm 2 mps 759 mmHg 35%
    16:00 +28°C° 0 mm 2 mps 759 mmHg 38%
    17:00 +26°C° 0 mm 1 mps 759 mmHg 42%
    18:00 +25°C° 0 mm 1 mps 759 mmHg 46%
    19:00 +24°C° 0 mm 1 mps 759 mmHg 48%
    20:00 +23°C° 0 mm 1 mps 760 mmHg 50%
    21:00 +23°C° 0 mm 1 mps 760 mmHg 52%
    22:00 +22°C° 0 mm 1 mps 760 mmHg 54%
    23:00 +22°C° 0 mm 1 mps 760 mmHg 56%

    10 December, Tuesday

    Time Temperature Precipitation Wind Pressure Humidity
    00:00 +21°C° 0 mm 1 mps 759 mmHg 58%
    01:00 +21°C° 0 mm 1 mps 759 mmHg 59%
    02:00 +21°C° 0 mm 1 mps 759 mmHg 60%
    03:00 +20°C° 0 mm 1 mps 759 mmHg 60%
    04:00 +20°C° 0 mm 1 mps 759 mmHg 61%
    05:00 +18°C° 0 mm 0 mps 759 mmHg 62%
    06:00 +17°C° 0 mm 0 mps 759 mmHg 63%
    07:00 +19°C° 0 mm 0 mps 759 mmHg 58%
    08:00 +21°C° 0 mm 0 mps 760 mmHg 53%
    09:00 +23°C° 0 mm 0 mps 760 mmHg 48%
    10:00 +24°C° 0 mm 0 mps 760 mmHg 44%
    11:00 +28°C° 0 mm 1 mps 760 mmHg 40%
    12:00 +29°C° 0 mm 1 mps 759 mmHg 36%
    13:00 +29°C° 0 mm 1 mps 759 mmHg 36%
    14:00 +29°C° 0 mm 1 mps 758 mmHg 35%
    15:00 +29°C° 0 mm 1 mps 757 mmHg 35%
    16:00 +28°C° 0 mm 1 mps 757 mmHg 39%
    17:00 +26°C° 0 mm 1 mps 757 mmHg 43%
    18:00 +23°C° 0 mm 0 mps 757 mmHg 46%
    19:00 +24°C° 0 mm 1 mps 758 mmHg 50%
    20:00 +23°C° 0 mm 1 mps 758 mmHg 53%
    21:00 +23°C° 0 mm 2 mps 758 mmHg 56%
    22:00 +21°C° 0 mm 2 mps 758 mmHg 61%
    23:00 +22°C° 0 mm 1 mps 758 mmHg 65%

    11 December, Wednesday

    Time Temperature Precipitation Wind Pressure Humidity
    00:00 +21°C° 0 mm 1 mps 758 mmHg 70%
    01:00 +21°C° 0 mm 1 mps 758 mmHg 72%
    02:00 +21°C° 0 mm 1 mps 758 mmHg 74%
    03:00 +21°C° 0 mm 1 mps 758 mmHg 77%
    04:00 +20°C° 0 mm 1 mps 758 mmHg 79%
    05:00 +20°C° 0 mm 1 mps 758 mmHg 81%
    06:00 +20°C° 0 mm 1 mps 758 mmHg 82%
    07:00 +22°C° 0 mm 1 mps 759 mmHg 76%
    08:00 +23°C° 0 mm 1 mps 759 mmHg 70%
    09:00 +25°C° 0 mm 1 mps 760 mmHg 64%
    10:00 +26°C° 0 mm 1 mps 760 mmHg 57%
    11:00 +28°C° 0 mm 1 mps 759 mmHg 50%
    12:00 +29°C° 0 mm 2 mps 759 mmHg 43%
    13:00 +29°C° 0 mm 1 mps 758 mmHg 44%
    14:00 +29°C° 0 mm 1 mps 758 mmHg 44%
    15:00 +27°C° 0 mm 0 mps 757 mmHg 45%
    16:00 +27°C° 0 mm 1 mps 757 mmHg 48%
    17:00 +26°C° 0 mm 1 mps 757 mmHg 51%
    18:00 +25°C° 0 mm 1 mps 757 mmHg 54%
    19:00 +25°C° 0 mm 2 mps 758 mmHg 59%
    20:00 +24°C° 0 mm 2 mps 758 mmHg 65%
    21:00 +23°C° 0 mm 2 mps 759 mmHg 70%
    22:00 +23°C° 0 mm 2 mps 759 mmHg 73%
    23:00 +21°C° 0 mm 2 mps 758 mmHg 76%

    12 December, Thursday

    Time Temperature Precipitation Wind Pressure Humidity
    00:00 +21°C° 0 mm 1 mps 758 mmHg 80%
    01:00 +21°C° 0 mm 1 mps 758 mmHg 81%
    02:00 +21°C° 0 mm 1 mps 758 mmHg 82%
    03:00 +20°C° 0 mm 1 mps 758 mmHg 83%
    04:00 +20°C° 0 mm 1 mps 758 mmHg 84%
    05:00 +20°C° 0 mm 1 mps 759 mmHg 85%
    06:00 +20°C° 0 mm 1 mps 759 mmHg 86%
    07:00 +21°C° 0 mm 1 mps 760 mmHg 80%
    08:00 +23°C° 0 mm 1 mps 760 mmHg 74%
    09:00 +25°C° 0 mm 2 mps 761 mmHg 67%
    10:00 +26°C° 0 mm 1 mps 761 mmHg 59%
    11:00 +28°C° 0 mm 1 mps 760 mmHg 50%
    12:00 +28°C° 0 mm 0 mps 760 mmHg 42%
    13:00 +28°C° 0 mm 0 mps 759 mmHg 40%
    14:00 +30°C° 0 mm 1 mps 759 mmHg 38%
    15:00 +30°C° 0 mm 1 mps 758 mmHg 36%
    16:00 +28°C° 0 mm 1 mps 759 mmHg 40%
    17:00 +26°C° 0 mm 1 mps 759 mmHg 44%
    18:00 +25°C° 0 mm 1 mps 759 mmHg 48%
    19:00 +24°C° 0 mm 1 mps 759 mmHg 51%
    20:00 +23°C° 0 mm 1 mps 759 mmHg 55%
    21:00 +22°C° 0 mm 1 mps 760 mmHg 58%
    22:00 +22°C° 0 mm 1 mps 760 mmHg 61%
    23:00 +21°C° 0 mm 1 mps 760 mmHg 64%
    Show more